COSMOS 2251 DEB

Satellite information

Favourite Embed

Satellite Type and Status

DEBRISIN ORBIT

Key statistics

Satellite COSMOS 2251 DEB at a glance.

Uptime

11647

Days in orbit

Revolutions

≈ 14.3

Per day

Orbit

LEO

Low Earth Orbit

Inclination

74.0

Latest

Satellite identification and parameters

Extended collection of information and parameters for COSMOS 2251 DEB.

Object identification

Identified? True

Debris? True

Object name: COSMOS 2251 DEB

International designator: 1993-036HE

Object number (NORAD): 34019

Object ID (CCSDS): 34019

Country: COMMONWEALTH OF INDEPENDENT STATES (CIS)

Current information (Y/N): Y

RCS size: SMALL

Orbital parameters

Period: 100.499 minutes

Inclination: 73.9529 deg

SMA: 7160.35 km

Apoapsis: 827.495 km

Periapsis: 736.935 km

RAAN: 96.5047 deg

Eccentricy: 0.0063237

Argument of periapsis: 322.5359 deg

Mean anomaly: 54.3414 deg

Mean motion: 14.32852071 rev/day

Mean motion (dot): 0.00003469 rev/day2

B* drag term: 0.0012522 1/REarth

Two-line elements (TLE)

Creation date: May 6, 2025, 3:54 a.m.

Reference frame: TEME

Reference center: EARTH

Epoch: May 5, 2025, 8:46 p.m. UTC

TLE line 0: 0 COSMOS 2251 DEB

TLE line 1: 1 34019U 93036HE 25125.86529264 .00003469 00000-0 12522-2 0 9991

TLE line 2: 2 34019 73.9529 96.5047 0063237 322.5359 54.3414 14.32852071843565

Live tracking on map

Real-time ground track for satellite COSMOS 2251 DEB.

In-orbit conjunctions

A list of the most updated potential collisions computed for object COSMOS 2251 DEB.

Target Orbit TCA Probability of collision Miss distance Type
SEASAT 1 SSO 2024-11-29 19:41:48 0.000891987 88.0 (m) PAYLOAD
COSMOS 2251 DEB LEO 2024-09-17 14:51:22 0.0001371664 112.0 (m) DEBRIS

Associated space launch

Military communications satellite. Destroyed in a collision with Iridium 33.

COSMOS 2251 DEB was lifted into orbit during the mission ‘Kosmos-3M | Strela-2M 51’, on board a Kosmos-3M space rocket.

The launch took place on June 16, 1993, 4:17 a.m. from 132/1 (132L).

For more information about the launch, click the button.

Launch to space Kosmos-3M | Strela-2M 51
Kosmos-3M | Strela-2M 51

Agency: N/A

Status: Launch Successful

Launch date: June 16, 1993, 4:17 a.m. UTC

Rocket: Kosmos-3M

Launch pad: 132/1 (132L)

Location: Plesetsk Cosmodrome, Russian Federation

...

Latest news about this satellite

There are no fresh news available about this satellite. Check back as we update our databases every day.


Newsletter sign-up

Weekly statistics, charts and insights to help you stay on top of the space industry.